User: anonymous   Login
Location: Oakhurst
(33.6448°N, 111.9543°W)
Time: 07:12:50
(UTC+00:00)
Language:

QB50P2 - Orbit

View from above orbital plane
View from above orbital plane
View from above satellite
View from above satellite

Ground track
Ground track

The orbit data is extracted from the following two-line orbital elements,

1 40032U 14033Y   21209.78125517  .00000393  00000-0  47716-4 0  9994
2 40032  97.9160 137.0269 0012912  45.0284 315.1977 14.88990030385448
Epoch (UTC): 28 July 2021 18:45:00
Eccentricity: 0.0012912
inclination: 97.9160°
perigee height: 592 km
apogee height: 610 km
right ascension of ascending node: 137.0269°
argument of perigee: 45.0284°
revolutions per day: 14.88990030
mean anomaly at epoch: 315.1977°
orbit number at epoch: 38544

The dashed part of the orbit path shows where the satellite is in the earth's shadow,  

DLR